Miscellaneous Local Product
Issued by NWS Hastings, NE

Home | Current Version | Previous Version | Graphics & Text | Print | Product List | Glossary On
Versions: 1 2 3 4 5 6 7 8 9 10 11 12 13 14 15 16 17 18 19 20 21 22 23 24 25 26 27 28 29 30 31 32 33 34 35 36 37 38 39 40 41 42 43 44 45 46 47 48 49 50
140
AXUS43 KGID 190202
MISGRI

GID CWA HOURLY WEATHER ROUNDUP
NATIONAL WEATHER SERVICE HASTINGS NE
800 PM CST WED JAN 18 2017

NOTE: "FAIR" INDICATES FEW OR NO CLOUDS BELOW 12,000 FEET WITH NO
SIGNIFICANT WEATHER AND/OR OBSTRUCTIONS TO VISIBILITY.

...SOUTH CENTRAL NEBRASKA...

CITY           SKY/WX    TMP DP  RH WIND       PRES   REMARKS
GRAND ISLAND   CLEAR     37  37 100 S9        29.84S WCI  30
HASTINGS       CLEAR     39  36  89 S5        29.85S
KEARNEY        CLEAR     37  34  87 CALM      29.82F
ORD            CLOUDY    33  30  88 CALM      29.80S
YORK           PTCLDY    37  36  93 S8        29.86S WCI  31
AURORA         CLEAR     42  37  83 S12       29.84F
LEXINGTON      CLOUDY    40  35  84 CALM      29.81R
HOLDREGE       CLEAR     39  36  87 S7        29.81F WCI  34
HEBRON         PTCLDY    38  34  86 S7        29.88F WCI  32

...NEBRASKA PANHANDLE...

CITY           SKY/WX    TMP DP  RH WIND       PRES   REMARKS
CHADRON        CLOUDY    28  23  81 CALM      29.67S
ALLIANCE       CLOUDY    28  23  81 S8        29.69F WCI  20
SCOTTSBLUFF    CLOUDY    39  23  52 CALM      29.70F
SIDNEY         CLOUDY    30  25  81 SW12      29.73F WCI  20

...WESTERN AND NORTH CENTRAL NEBRASKA...

CITY           SKY/WX    TMP DP  RH WIND       PRES   REMARKS
VALENTINE      CLOUDY    39  24  55 SW13      29.69S WCI  31
AINSWORTH      CLEAR     39  28  66 S13       29.71S WCI  31
ONEILL         CLEAR     37  34  87 S10       29.76S WCI  30
BROKEN BOW     PTCLDY    35  33  92 SE7       29.78F WCI  29
IMPERIAL       CLEAR     30  26  85 S5        29.75F WCI  25
NORTH PLATTE   CLOUDY    31  28  89 SE5       29.77F WCI  26
MCCOOK         CLEAR     37  34  89 S5        29.80S WCI  33

...EASTERN NEBRASKA...

CITY           SKY/WX    TMP DP  RH WIND       PRES   REMARKS
NORFOLK        CLOUDY    38  35  89 S8        29.83F WCI  32
SO SIOUX CITY  CLEAR     38  35  89 SE12      29.86S WCI  30
TEKAMAH        CLEAR     35  33  92 SE7       29.88S WCI  29
COLUMBUS       CLOUDY    41  36  81 S3        29.86S
ALBION         PTCLDY    38  36  90 S3        29.83F
OMAHA EPPLEY   CLEAR     40  34  79 S9        29.90S WCI  34
OFFUTT AFB     CLEAR     40  40  99 SE6       29.90S
MILLARD        CLEAR     42  37  81 SE6       29.90S
LINCOLN        CLEAR     37  34  89 S8        29.89F WCI  31
NEBRASKA CITY  CLEAR     39  34  80 S10       29.92S WCI  32
BEATRICE       CLEAR     42  35  76 SE7       29.90S
FALLS CITY     CLEAR     35  33  92 SE8       29.94F WCI  29

...NORTHERN KANSAS...

CITY           SKY/WX    TMP DP  RH WIND       PRES   REMARKS
GOODLAND       CLEAR     38  32  79 S9        29.77F WCI  31
HILL CITY      CLOUDY    43  40  89 S6        29.82F
NORTON         CLEAR     36  30  80 SE3       29.81F
PHILLIPSBURG   CLOUDY    41  39  93 E5        29.83F
SMITH CENTER   CLEAR     36  34  93 SE8       29.85F WCI  29
HAYS           CLEAR     41  39  93 SE9       29.84F
RUSSELL        CLEAR     44  39  82 S14       29.84F
CONCORDIA      CLEAR     43  36  76 S13       29.88F
SALINA         CLEAR     46  41  82 S15       29.90F
TOPEKA         PTCLDY    40  35  83 SE7       29.96F



USA.gov is the U.S. government's official web portal to all federal, state and local government web resources and services.